[[{"header":{"parameterUnit":"m.s-1","parameterCategory":1,"la1":30.2992,"la2":30.254,"lo1":-89.0895,"lo2":-89.0443,"dy":0.0025,"dx":0.0025,"nx":19,"ny":19,"refTime":"2026-03-30T03:00:00:Z","depth":0,"parameterNumber":2,"parameterNumberName":"U-component_of_WINDS"},"data":[0,0,0,-4.5918,-4.5921,-4.6055,-4.6056,-4.6226,-4.6228,0,0,0,0,0,0,0,0,0,0,0,-4.5879,-4.588,-4.5918,-4.5922,-4.6055,-4.6056,-4.6226,-4.6228,0,0,0,0,0,0,0,0,0,0,0,-4.5878,-4.588,-4.5881,-4.5922,-4.6055,-4.6056,-4.6226,-4.6125,0,0,0,0,0,0,0,0,0,0,-4.5995,-4.5958,-4.5879,-4.5881,-4.5923,-4.6055,-4.6056,-4.612,-4.6131,-4.6165,0,-4.6197,0,-4.6215,-4.6239,-4.624,0,0,0,-4.5921,-4.5949,-4.5985,-4.5881,-4.5924,-4.6055,-4.5995,-4.6126,-4.6139,-4.618,-4.6199,-4.6205,-4.6218,-4.624,-4.6241,-4.6443,-4.6444,0,0,-4.5914,-4.5902,-4.5977,-4.5993,-4.5974,-4.5991,-4.5999,-4.6134,-4.6153,-4.62,-4.6209,-4.6221,-4.6242,-4.6243,-4.6442,-4.6443,0,0,0,-4.5893,-4.5897,-4.593,-4.5986,-4.6011,-4.5994,-4.6004,-4.6147,-4.6159,-4.6211,-4.6223,-4.6242,-4.6245,-4.6441,-4.6443,-4.6477,0,0,0,-4.5888,-4.5885,-4.5927,-4.5922,-4.6008,-4.6081,-4.6015,-4.615,-4.6165,-4.6222,-4.6243,-4.6246,-4.644,-4.6442,-4.6474,-4.6494,0,0,0,-4.587,-4.5883,-4.5903,-4.5921,-4.5978,-4.6079,-4.6098,-4.6153,-4.6172,-4.624,-4.6247,-4.6439,-4.6442,-4.6471,-4.649,-4.6542,0,0,0,-4.5847,-4.5931,-4.5903,-4.6002,-4.5977,-4.6101,-4.6098,-4.619,-4.6253,-4.6243,-4.644,-4.6442,-4.647,-4.6487,-4.6539,-4.6582,-4.66,0,0,-4.5947,-4.5943,-4.6003,-4.5981,-4.6107,-4.6081,-4.6212,-4.628,-4.6297,-4.6393,-4.6398,-4.6475,-4.6489,-4.6542,-4.671,-4.6724,0,0,0,-4.603,-4.6073,-4.6109,-4.6168,-4.6223,-4.6271,-4.6321,-4.6346,-4.6429,-4.6344,-4.6511,-4.652,-4.6551,-4.6571,-4.6583,-4.661,-4.6453,-4.6452,-4.6452,-4.6153,-4.6172,-4.6271,-4.6306,-4.6364,-4.6415,-4.6464,-4.6507,-4.6507,-4.6547,-4.6574,-4.6674,-4.6698,-4.6707,-4.6735,-4.6602,-4.6602,-4.6602,-4.6602,-4.6299,-4.636,-4.6363,-4.6459,-4.6478,-4.6559,-4.6613,-4.6612,-4.6689,-4.6655,-4.6683,-4.664,-4.6722,-4.6747,-4.6605,-4.6604,-4.6604,-4.6604,-4.6603,-4.6378,-4.641,-4.6442,-4.6531,-4.6597,-4.6631,-4.6706,-4.6722,-4.6737,-4.6766,-4.6795,-4.6794,-4.6793,-4.6779,-4.678,-4.678,-4.678,-4.6781,-4.6781,-4.6445,-4.648,-4.6541,-4.6609,-4.665,-4.6706,-4.6761,-4.6801,-4.685,-4.6855,-4.6855,-4.6851,-4.6728,-4.6695,-4.6786,-4.6785,-4.6785,-4.6784,-4.6784,-4.6579,-4.6552,-4.6647,-4.6688,-4.6769,-4.6834,-4.6855,-4.6937,-4.6973,-4.7009,-4.7002,-4.6909,-4.6905,-4.6896,-4.6868,-4.6999,-4.6999,-4.6999,-4.6999,-4.6643,-4.6645,-4.6745,-4.681,-4.6875,-4.6905,-4.7011,-4.7055,-4.7097,-4.712,-4.7105,-4.7071,-4.7061,-4.7063,-4.705,-4.7024,-4.7191,-4.7192,-4.7192,-4.6725,-4.6734,-4.682,-4.6862,-4.6928,-4.6983,-4.7083,-4.7157,-4.7199,-4.72,-4.7139,-4.713,-4.7076,-4.7058,-4.7052,-4.7031,-4.6984,0,0]},{"header":{"parameterUnit":"m.s-1","parameterCategory":1,"la1":30.2992,"la2":30.254,"lo1":-89.0895,"lo2":-89.0443,"dy":0.0025,"dx":0.0025,"nx":19,"ny":19,"refTime":"2026-03-30T03:00:00:Z","depth":0,"parameterNumber":3,"parameterNumberName":"V-component_of_WINDS"},"data":[0,0,0,3.4661,3.4661,3.4662,3.4662,3.4666,3.4666,0,0,0,0,0,0,0,0,0,0,0,3.4663,3.4663,3.4661,3.4661,3.4662,3.4662,3.4666,3.4666,0,0,0,0,0,0,0,0,0,0,0,3.4663,3.4663,3.4663,3.4661,3.4662,3.4662,3.4666,3.4664,0,0,0,0,0,0,0,0,0,0,3.4663,3.4667,3.4663,3.4663,3.4661,3.4662,3.4662,3.4664,3.4664,3.4667,0,3.467,0,3.4668,3.4666,3.4666,0,0,0,3.466,3.4667,3.4665,3.4663,3.4661,3.4662,3.4661,3.4664,3.4664,3.4667,3.467,3.467,3.4668,3.4666,3.4666,3.4687,3.4687,0,0,3.466,3.4664,3.4665,3.4665,3.4665,3.4661,3.4661,3.4664,3.4667,3.467,3.467,3.4668,3.4666,3.4667,3.4687,3.4687,0,0,0,3.4661,3.4664,3.4663,3.4665,3.4665,3.4661,3.4661,3.4667,3.4666,3.467,3.4668,3.4666,3.4667,3.4687,3.4687,3.4699,0,0,0,3.4661,3.4665,3.4663,3.4665,3.4665,3.4666,3.4664,3.4666,3.4666,3.4668,3.4666,3.4667,3.4686,3.4687,3.4698,3.4704,0,0,0,3.4662,3.4665,3.4666,3.4666,3.4666,3.4666,3.4665,3.4666,3.4665,3.4666,3.4667,3.4686,3.4687,3.4698,3.4703,3.471,0,0,0,3.4665,3.4677,3.4666,3.4678,3.4666,3.4674,3.4665,3.4671,3.4673,3.4667,3.4686,3.4687,3.4698,3.4702,3.471,3.4717,3.4721,0,0,3.4682,3.4679,3.4686,3.4676,3.4687,3.4673,3.4686,3.4684,3.468,3.4685,3.4685,3.4699,3.4703,3.471,3.4741,3.4744,0,0,0,3.4692,3.4697,3.4699,3.4702,3.4701,3.47,3.4696,3.4695,3.4699,3.4684,3.4704,3.4706,3.471,3.4713,3.4716,3.4719,3.4689,3.4689,3.4689,3.4722,3.4717,3.4727,3.4722,3.4725,3.472,3.4722,3.472,3.4714,3.4718,3.472,3.4739,3.4743,3.4745,3.4748,3.4724,3.4724,3.4724,3.4724,3.4746,3.4751,3.4743,3.475,3.4744,3.475,3.4747,3.4742,3.4747,3.4737,3.4741,3.4731,3.4748,3.4751,3.4725,3.4724,3.4724,3.4724,3.4724,3.4764,3.4766,3.4765,3.4768,3.4772,3.4766,3.4771,3.4765,3.476,3.4764,3.4764,3.4764,3.4762,3.4764,3.4764,3.4764,3.4764,3.4765,3.4765,3.4784,3.4782,3.4787,3.4787,3.4788,3.4788,3.4784,3.4785,3.4785,3.478,3.478,3.4773,3.4751,3.4745,3.4766,3.4765,3.4765,3.4765,3.4765,3.4809,3.4802,3.481,3.4811,3.481,3.4814,3.4807,3.4809,3.4809,3.4811,3.4804,3.4788,3.4785,3.4782,3.4778,3.4805,3.4805,3.4805,3.4805,3.4824,3.4822,3.4828,3.483,3.4832,3.4826,3.4834,3.4831,3.4827,3.4826,3.4822,3.4815,3.4813,3.4811,3.4808,3.4803,3.4837,3.4837,3.4837,3.484,3.4837,3.4845,3.4841,3.484,3.484,3.4847,3.485,3.4843,3.4838,3.4826,3.4825,3.4814,3.4811,3.4804,3.48,3.4792,0,0]}]]